Tracking 29606 objects as of 18-Sep-2024
HD Live streaming from Space Station
objects crossing your sky now

FENGYUN 1C DEB

Track FENGYUN 1C DEB now!
10-day predictions


NORAD ID: 31622
Int'l Code: 1999-025CAC
Perigee: 788.8 km
Apogee: 816.8 km
Inclination: 98.8 °
Period: 100.8 minutes
Semi major axis: 7173 km
RCS: 0.0179 m2 (small)
Launch date: May 10, 1999
Source: People's Republic of China (PRC)
Launch site: Taiyaun Space Center, China (TSC)

Note: This is SATELLITE DEBRIS
Your satellite tracking list
Your tracking list is empty




NASA's NSSDC Master Catalog

Two Line Element Set (TLE):
1 31622U 99025CAC 24261.48497522  .00044333  00000-0  17456-1 0  9996
2 31622  98.8299 341.6499 0019530 224.1839 266.0440 14.28825897893066
Source of the keplerian elements: AFSPC